| time (UTC) | temp C | wind direction | speed KPH | gust KPH | rain 1hr cm | rain 24hr cm | rain mn cm | humidity % | barometer mb |
| 20260508003701 | 6 | 113 | 0.0 | 3.2 | 0.00 | 0.03 | 0.00 | 91 | 1016.3 |
| 20260508002642 | 6 | 113 | 0.0 | 0.0 | 0.00 | 0.03 | 0.00 | 90 | 1016.4 |
| 20260508001608 | 6 | 113 | 0.0 | 0.0 | 0.00 | 0.03 | 0.00 | 90 | 1016.5 |
| 20260508000634 | 6 | 113 | 0.0 | 0.0 | 0.00 | 0.03 | 0.00 | 91 | 1016.5 |
| 20260507235614 | 6 | 113 | 0.0 | 0.0 | 0.00 | 0.03 | 0.00 | 90 | 1016.6 |
| 20260507233407 | 7 | 113 | 0.0 | 0.0 | 0.00 | 0.03 | 0.00 | 89 | 1016.8 |
| 20260507232336 | 7 | 113 | 0.0 | 0.0 | 0.00 | 0.03 | 0.00 | 89 | 1016.8 |
| 20260507231355 | 7 | 113 | 0.0 | 0.0 | 0.00 | 0.03 | 0.00 | 89 | 1016.8 |
| 20260507225214 | 7 | 113 | 0.0 | 0.0 | 0.00 | 0.03 | 0.03 | 89 | 1016.8 |
| 20260507224234 | 8 | 113 | 0.0 | 0.0 | 0.00 | 0.03 | 0.03 | 88 | 1017.0 |
| 20260507223259 | 8 | 113 | 0.0 | 0.0 | 0.00 | 0.03 | 0.03 | 88 | 1016.9 |
| 20260507222323 | 8 | 113 | 0.0 | 0.0 | 0.00 | 0.03 | 0.03 | 88 | 1016.9 |
| 20260507221255 | 8 | 113 | 0.0 | 0.0 | 0.00 | 0.03 | 0.03 | 87 | 1016.9 |
| 20260507220255 | 9 | 113 | 0.0 | 0.0 | 0.00 | 0.03 | 0.03 | 87 | 1016.9 |
| 20260507215238 | 10 | 113 | 0.0 | 0.0 | 0.00 | 0.03 | 0.03 | 86 | 1017.0 |
| 20260507214226 | 10 | 113 | 0.0 | 0.0 | 0.00 | 0.03 | 0.03 | 85 | 1017.1 |
| 20260507213207 | 10 | 113 | 0.0 | 0.0 | 0.00 | 0.03 | 0.03 | 85 | 1017.0 |
| 20260507211026 | 10 | 113 | 0.0 | 0.0 | 0.00 | 0.03 | 0.03 | 85 | 1016.9 |
| 20260507210022 | 10 | 113 | 0.0 | 3.2 | 0.00 | 0.03 | 0.03 | 85 | 1016.8 |
| 20260507205016 | 10 | 113 | 1.6 | 3.2 | 0.00 | 0.03 | 0.03 | 85 | 1016.8 |
| 20260507202850 | 10 | 113 | 1.6 | 4.8 | 0.00 | 0.03 | 0.03 | 84 | 1016.8 |
| 20260507200807 | 10 | 111 | 3.2 | 6.4 | 0.00 | 0.03 | 0.03 | 83 | 1016.6 |
| 20260507195801 | 10 | 115 | 3.2 | 6.4 | 0.00 | 0.03 | 0.03 | 83 | 1016.5 |
| 20260507194750 | 10 | 129 | 4.8 | 8.0 | 0.00 | 0.05 | 0.03 | 83 | 1016.2 |
| 20260507193727 | 10 | 125 | 3.2 | 6.4 | 0.00 | 0.08 | 0.03 | 82 | 1016.3 |
| 20260507192725 | 11 | 146 | 3.2 | 8.0 | 0.00 | 0.08 | 0.03 | 82 | 1016.3 |
| 20260507190532 | 11 | 119 | 9.7 | 16.1 | 0.00 | 0.08 | 0.03 | 82 | 1016.1 |
| 20260507185508 | 11 | 109 | 8.0 | 16.1 | 0.00 | 0.10 | 0.03 | 82 | 1016.1 |
| 20260507184504 | 11 | 113 | 8.0 | 16.1 | 0.00 | 0.10 | 0.03 | 81 | 1016.3 |
| 20260507183441 | 11 | 115 | 8.0 | 16.1 | 0.00 | 0.10 | 0.03 | 81 | 1016.3 |
| 20260507182457 | 11 | 113 | 9.7 | 16.1 | 0.00 | 0.10 | 0.03 | 81 | 1016.1 |
| 20260507181459 | 11 | 114 | 6.4 | 14.5 | 0.00 | 0.10 | 0.03 | 81 | 1016.2 |
| 20260507180502 | 11 | 121 | 8.0 | 17.7 | 0.00 | 0.10 | 0.03 | 80 | 1016.2 |
| 20260507174338 | 11 | 136 | 9.7 | 17.7 | 0.00 | 0.13 | 0.03 | 79 | 1016.1 |
| 20260507173310 | 11 | 107 | 9.7 | 17.7 | 0.00 | 0.13 | 0.03 | 79 | 1016.1 |
| 20260507172244 | 11 | 103 | 11.3 | 19.3 | 0.00 | 0.13 | 0.03 | 79 | 1016.1 |
| 20260507171241 | 11 | 104 | 11.3 | 20.9 | 0.00 | 0.13 | 0.03 | 79 | 1016.1 |
| 20260507170251 | 11 | 122 | 14.5 | 20.9 | 0.00 | 0.13 | 0.03 | 79 | 1016.1 |
| 20260507165250 | 11 | 126 | 11.3 | 19.3 | 0.00 | 0.13 | 0.03 | 79 | 1016.2 |
| 20260507164242 | 11 | 96 | 11.3 | 20.9 | 0.00 | 0.13 | 0.03 | 78 | 1016.2 |
| 20260507163232 | 11 | 140 | 11.3 | 20.9 | 0.00 | 0.13 | 0.03 | 78 | 1016.2 |
| 20260507162209 | 11 | 118 | 11.3 | 17.7 | 0.00 | 0.13 | 0.03 | 78 | 1016.2 |
| 20260507161221 | 11 | 127 | 11.3 | 19.3 | 0.00 | 0.13 | 0.03 | 77 | 1016.2 |
| 20260507155114 | 11 | 138 | 9.7 | 17.7 | 0.00 | 0.13 | 0.03 | 77 | 1016.3 |
| 20260507154056 | 11 | 127 | 9.7 | 19.3 | 0.00 | 0.13 | 0.03 | 76 | 1016.3 |
| 20260507153029 | 11 | 153 | 9.7 | 19.3 | 0.00 | 0.13 | 0.03 | 75 | 1016.3 |
| 20260507152005 | 11 | 114 | 12.9 | 17.7 | 0.00 | 0.13 | 0.03 | 76 | 1016.3 |
| 20260507145834 | 11 | 105 | 9.7 | 17.7 | 0.00 | 0.13 | 0.03 | 75 | 1016.3 |
| 20260507144809 | 11 | 94 | 8.0 | 19.3 | 0.00 | 0.13 | 0.03 | 75 | 1016.2 |
| 20260507141522 | 12 | 131 | 11.3 | 25.7 | 0.00 | 0.13 | 0.03 | 75 | 1016.2 |
| 20260507140530 | 12 | 128 | 14.5 | 29.0 | 0.00 | 0.13 | 0.03 | 75 | 1016.3 |
| 20260507135544 | 11 | 108 | 22.5 | 29.0 | 0.00 | 0.13 | 0.03 | 77 | 1016.3 |
| 20260507134554 | 11 | 97 | 22.5 | 27.4 | 0.00 | 0.13 | 0.03 | 77 | 1016.3 |
| 20260507132351 | 11 | 99 | 22.5 | 25.7 | 0.00 | 0.13 | 0.03 | 77 | 1016.3 |
| 20260507131411 | 11 | 96 | 20.9 | 25.7 | 0.00 | 0.13 | 0.03 | 77 | 1016.3 |
| 20260507130407 | 11 | 92 | 22.5 | 25.7 | 0.00 | 0.13 | 0.03 | 77 | 1016.2 |
| 20260507124219 | 11 | 91 | 19.3 | 27.4 | 0.00 | 0.13 | 0.03 | 76 | 1016.2 |
| 20260507123144 | 11 | 95 | 19.3 | 24.1 | 0.00 | 0.13 | 0.03 | 78 | 1016.2 |
| 20260507122209 | 11 | 100 | 19.3 | 24.1 | 0.00 | 0.13 | 0.03 | 77 | 1016.2 |
| 20260507121206 | 11 | 95 | 17.7 | 20.9 | 0.00 | 0.13 | 0.03 | 77 | 1016.3 |
| 20260507120217 | 11 | 109 | 16.1 | 20.9 | 0.00 | 0.13 | 0.03 | 75 | 1016.3 |
| 20260507115237 | 11 | 104 | 16.1 | 22.5 | 0.00 | 0.13 | 0.03 | 77 | 1016.4 |
| 20260507114215 | 11 | 111 | 19.3 | 22.5 | 0.00 | 0.13 | 0.03 | 77 | 1016.5 |
| 20260507113214 | 11 | 88 | 17.7 | 24.1 | 0.00 | 0.13 | 0.03 | 77 | 1016.3 |
| 20260507112151 | 11 | 93 | 16.1 | 24.1 | 0.00 | 0.13 | 0.03 | 77 | 1016.5 |
| 20260507111208 | 11 | 104 | 14.5 | 19.3 | 0.00 | 0.13 | 0.03 | 76 | 1016.5 |
| 20260507110154 | 11 | 100 | 11.3 | 19.3 | 0.00 | 0.13 | 0.03 | 73 | 1016.7 |
| 20260507105144 | 11 | 121 | 9.7 | 16.1 | 0.00 | 0.13 | 0.03 | 75 | 1016.7 |
| 20260507104138 | 11 | 95 | 8.0 | 12.9 | 0.00 | 0.13 | 0.03 | 74 | 1016.8 |
| 20260507103202 | 11 | 113 | 8.0 | 14.5 | 0.00 | 0.10 | 0.03 | 74 | 1016.7 |
| 20260507102154 | 11 | 86 | 6.4 | 14.5 | 0.00 | 0.10 | 0.00 | 75 | 1016.7 |
| 20260507101156 | 11 | 84 | 6.4 | 14.5 | 0.00 | 0.10 | 0.00 | 76 | 1016.8 |
| 20260507100153 | 11 | 95 | 6.4 | 14.5 | 0.00 | 0.10 | 0.00 | 77 | 1016.7 |
| 20260507092945 | 10 | 78 | 8.0 | 12.9 | 0.00 | 0.10 | 0.00 | 77 | 1016.6 |
| 20260507091945 | 10 | 81 | 3.2 | 12.9 | 0.00 | 0.10 | 0.00 | 77 | 1016.6 |
| 20260507090919 | 10 | 100 | 4.8 | 14.5 | 0.00 | 0.10 | 0.00 | 77 | 1016.7 |
| 20260507085939 | 10 | 103 | 6.4 | 14.5 | 0.00 | 0.10 | 0.00 | 76 | 1016.5 |
| 20260507084956 | 10 | 91 | 3.2 | 8.0 | 0.00 | 0.10 | 0.00 | 77 | 1016.5 |
| 20260507083959 | 10 | 84 | 4.8 | 14.5 | 0.00 | 0.10 | 0.00 | 77 | 1016.5 |
| 20260507083004 | 10 | 96 | 6.4 | 14.5 | 0.00 | 0.10 | 0.00 | 77 | 1016.4 |
| 20260507075644 | 10 | 108 | 8.0 | 12.9 | 0.00 | 0.10 | 0.00 | 78 | 1016.4 |
| 20260507073432 | 10 | 106 | 8.0 | 14.5 | 0.00 | 0.10 | 0.00 | 79 | 1016.2 |
| 20260507072408 | 10 | 95 | 8.0 | 14.5 | 0.00 | 0.10 | 0.00 | 80 | 1016.2 |
| 20260507071337 | 9 | 72 | 9.7 | 14.5 | 0.00 | 0.10 | 0.00 | 81 | 1016.1 |
| 20260507070308 | 9 | 61 | 9.7 | 14.5 | 0.00 | 0.10 | 0.00 | 82 | 1016.1 |
| 20260507065308 | 9 | 69 | 4.8 | 12.9 | 0.00 | 0.10 | 0.00 | 83 | 1016.1 |
| 20260507063213 | 8 | 82 | 4.8 | 8.0 | 0.00 | 0.10 | 0.00 | 85 | 1016.0 |
| 20260507062234 | 8 | 85 | 3.2 | 6.4 | 0.00 | 0.10 | 0.00 | 85 | 1016.0 |
| 20260507061210 | 8 | 85 | 1.6 | 4.8 | 0.00 | 0.10 | 0.00 | 86 | 1016.0 |
| 20260507060202 | 8 | 85 | 4.8 | 8.0 | 0.00 | 0.10 | 0.00 | 86 | 1015.9 |
| 20260507055213 | 7 | 85 | 3.2 | 8.0 | 0.00 | 0.10 | 0.00 | 87 | 1015.8 |
| 20260507054227 | 7 | 69 | 3.2 | 6.4 | 0.00 | 0.10 | 0.00 | 87 | 1015.8 |
| 20260507052036 | 7 | 69 | 3.2 | 8.0 | 0.00 | 0.10 | 0.00 | 88 | 1015.8 |
| 20260507051026 | 7 | 63 | 1.6 | 6.4 | 0.00 | 0.10 | 0.00 | 88 | 1015.7 |
| 20260507050007 | 7 | 151 | 1.6 | 4.8 | 0.00 | 0.10 | 0.00 | 88 | 1015.6 |
| 20260507045017 | 7 | 151 | 1.6 | 4.8 | 0.00 | 0.10 | 0.00 | 89 | 1015.5 |
| 20260507044020 | 7 | 153 | 0.0 | 3.2 | 0.00 | 0.10 | 0.00 | 89 | 1015.4 |
| 20260507043031 | 7 | 153 | 0.0 | 3.2 | 0.00 | 0.10 | 0.00 | 89 | 1015.4 |
| 20260507042019 | 7 | 153 | 0.0 | 3.2 | 0.00 | 0.10 | 0.00 | 89 | 1015.4 |
| 20260507040954 | 7 | 321 | 0.0 | 0.0 | 0.00 | 0.10 | 0.00 | 89 | 1015.3 |
| 20260507040016 | 7 | 321 | 0.0 | 3.2 | 0.00 | 0.10 | 0.00 | 89 | 1015.3 |
| 20260507035016 | 7 | 321 | 0.0 | 3.2 | 0.00 | 0.10 | 0.00 | 89 | 1015.3 |
| 20260507032802 | 7 | 317 | 0.0 | 4.8 | 0.00 | 0.10 | 0.00 | 89 | 1015.2 |
| 20260507031756 | 7 | 305 | 1.6 | 3.2 | 0.00 | 0.10 | 0.00 | 89 | 1015.2 |
| 20260507030811 | 7 | 305 | 0.0 | 3.2 | 0.00 | 0.10 | 0.00 | 89 | 1015.3 |
| 20260507025812 | 7 | 305 | 0.0 | 3.2 | 0.00 | 0.10 | 0.00 | 89 | 1015.2 |
| 20260507023653 | 7 | 305 | 0.0 | 3.2 | 0.00 | 0.10 | 0.00 | 89 | 1015.1 |
| 20260507022707 | 7 | 305 | 0.0 | 1.6 | 0.00 | 0.10 | 0.00 | 89 | 1015.0 |
| 20260507021726 | 7 | 305 | 0.0 | 3.2 | 0.00 | 0.10 | 0.00 | 89 | 1015.0 |
| 20260507020720 | 7 | 305 | 1.6 | 6.4 | 0.00 | 0.10 | 0.00 | 89 | 1014.9 |
| 20260507015706 | 7 | 305 | 3.2 | 6.4 | 0.00 | 0.10 | 0.00 | 89 | 1014.9 |
| 20260507014710 | 7 | 342 | 1.6 | 3.2 | 0.00 | 0.10 | 0.00 | 88 | 1014.9 |
| 20260507013637 | 7 | 5 | 1.6 | 6.4 | 0.00 | 0.10 | 0.00 | 88 | 1014.8 |
| 20260507012622 | 8 | 11 | 3.2 | 6.4 | 0.00 | 0.10 | 0.00 | 88 | 1014.8 |
| 20260507011634 | 8 | 19 | 3.2 | 4.8 | 0.00 | 0.10 | 0.00 | 88 | 1014.8 |
| 20260507010659 | 8 | 32 | 3.2 | 4.8 | 0.00 | 0.10 | 0.00 | 87 | 1014.8 |
| 20260507005702 | 8 | 32 | 3.2 | 4.8 | 0.00 | 0.10 | 0.00 | 88 | 1014.7 |
| 20260507004720 | 8 | 32 | 3.2 | 6.4 | 0.00 | 0.10 | 0.00 | 87 | 1014.7 |